DAL227 KDCA-KLGA

Flight info

Callsign DAL227
Flight time 0h 44m
Altitude 21000
Route DOCTR5 AGARD SPEAK PROUD2
Aircraft E190/M-SDE1E2E3FGHIJ3J4J7P2RWXY/LB1D1G1

Departure

Time 2026-04-24 03:19
Airport Ronald Reagan Washington National Airport (KDCA)

Arrival

Time 2026-04-24 04:03
Airport LaGuardia Airport (KLGA)
Time Latitude Longitude Altitude Speed Heading
2026-04-24 02:21 38.85744 -77.04330 25 ft 0 kts 341°
2026-04-24 03:04 38.85740 -77.04329 25 ft 2 kts 341°
2026-04-24 03:05 38.85726 -77.04323 25 ft 2 kts 348°
2026-04-24 03:05 38.85711 -77.04324 25 ft 2 kts 18°
2026-04-24 03:05 38.85698 -77.04333 26 ft 2 kts 42°
2026-04-24 03:05 38.85690 -77.04347 26 ft 1 kts 66°
2026-04-24 03:06 38.85688 -77.04355 26 ft 1 kts 73°
2026-04-24 03:06 38.85687 -77.04358 26 ft 0 kts 72°
2026-04-24 03:11 38.85688 -77.04356 26 ft 2 kts 72°
2026-04-24 03:11 38.85699 -77.04309 25 ft 8 kts 72°
2026-04-24 03:11 38.85722 -77.04218 23 ft 11 kts 72°
2026-04-24 03:12 38.85730 -77.04121 21 ft 12 kts 115°
2026-04-24 03:12 38.85693 -77.04072 21 ft 2 kts 142°
2026-04-24 03:12 38.85675 -77.04054 21 ft 4 kts 142°
2026-04-24 03:12 38.85643 -77.04042 21 ft 5 kts 174°
2026-04-24 03:13 38.85597 -77.04037 22 ft 8 kts 175°
2026-04-24 03:13 38.85533 -77.04022 23 ft 10 kts 165°
2026-04-24 03:13 38.85447 -77.04005 23 ft 14 kts 174°
2026-04-24 03:13 38.85339 -77.03995 23 ft 15 kts 176°
2026-04-24 03:14 38.85240 -77.03986 23 ft 13 kts 176°
2026-04-24 03:14 38.85149 -77.03978 23 ft 14 kts 175°
2026-04-24 03:14 38.85036 -77.03966 22 ft 18 kts 175°
2026-04-24 03:14 38.84935 -77.03956 22 ft 3 kts 175°
2026-04-24 03:15 38.84923 -77.03955 22 ft 3 kts 175°
2026-04-24 03:15 38.84885 -77.03942 22 ft 7 kts 137°
2026-04-24 03:15 38.84833 -77.03885 21 ft 12 kts 173°
2026-04-24 03:15 38.84735 -77.03873 21 ft 9 kts 176°
2026-04-24 03:16 38.84729 -77.03873 21 ft 2 kts 176°
2026-04-24 03:16 38.84691 -77.03870 20 ft 9 kts 176°
2026-04-24 03:16 38.84599 -77.03861 18 ft 17 kts 175°
2026-04-24 03:16 38.84471 -77.03849 17 ft 15 kts 175°
2026-04-24 03:17 38.84360 -77.03838 17 ft 17 kts 176°
2026-04-24 03:17 38.84272 -77.03825 15 ft 13 kts 174°
2026-04-24 03:17 38.84197 -77.03770 14 ft 12 kts 115°
2026-04-24 03:17 38.84210 -77.03683 14 ft 11 kts 10°
2026-04-24 03:18 38.84226 -77.03683 15 ft 0 kts 352°
2026-04-24 03:18 38.84314 -77.03693 16 ft 43 kts 355°
2026-04-24 03:18 38.84866 -77.03756 19 ft 114 kts 355°
2026-04-24 03:18 38.85842 -77.03870 71 ft 161 kts 352°
2026-04-24 03:19 38.86980 -77.04385 450 ft 185 kts 326°
2026-04-24 03:19 38.88012 -77.05311 1373 ft 177 kts 324°
2026-04-24 03:19 38.89080 -77.06162 2084 ft 186 kts 327°
2026-04-24 03:19 38.90172 -77.07150 2275 ft 201 kts 304°
2026-04-24 03:20 38.90850 -77.08781 2614 ft 210 kts 295°
2026-04-24 03:20 38.91537 -77.10435 3084 ft 214 kts 308°
2026-04-24 03:20 38.92720 -77.11694 3320 ft 231 kts 325°
2026-04-24 03:20 38.94107 -77.12869 3532 ft 246 kts 325°
2026-04-24 03:21 38.95646 -77.14005 3792 ft 258 kts 331°
2026-04-24 03:21 38.97281 -77.14991 4218 ft 263 kts 344°
2026-04-24 03:21 38.99098 -77.14891 4689 ft 270 kts 18°
2026-04-24 03:21 39.00671 -77.13567 5203 ft 273 kts 36°
2026-04-24 03:22 39.02139 -77.12039 5690 ft 273 kts 35°
2026-04-24 03:22 39.03509 -77.10345 6108 ft 280 kts 54°
2026-04-24 03:22 39.04070 -77.07953 6476 ft 290 kts 88°
2026-04-24 03:22 39.03894 -77.05365 6891 ft 293 kts 94°
2026-04-24 03:23 39.03685 -77.02747 7303 ft 295 kts 94°
2026-04-24 03:23 39.03482 -77.00095 7706 ft 296 kts 94°
2026-04-24 03:23 39.03286 -76.97478 8097 ft 298 kts 93°
2026-04-24 03:23 39.03088 -76.94810 8494 ft 299 kts 93°
2026-04-24 03:24 39.02889 -76.92125 8886 ft 300 kts 93°
2026-04-24 03:24 39.02690 -76.89445 9249 ft 302 kts 93°
2026-04-24 03:24 39.02490 -76.86761 9588 ft 304 kts 93°
2026-04-24 03:24 39.02289 -76.84074 9921 ft 306 kts 93°
2026-04-24 03:25 39.02083 -76.81321 10246 ft 308 kts 92°
2026-04-24 03:25 39.01878 -76.78602 10532 ft 311 kts 92°
2026-04-24 03:25 39.01670 -76.75832 10794 ft 315 kts 92°
2026-04-24 03:25 39.01454 -76.72984 11033 ft 319 kts 92°
2026-04-24 03:26 39.01239 -76.70147 11260 ft 323 kts 92°
2026-04-24 03:26 39.01020 -76.67271 11497 ft 326 kts 92°
2026-04-24 03:26 39.00936 -76.64368 11696 ft 328 kts 86°
2026-04-24 03:26 39.00948 -76.61416 11899 ft 331 kts 86°
2026-04-24 03:27 39.00956 -76.58436 12090 ft 334 kts 86°
2026-04-24 03:27 39.00964 -76.55456 12292 ft 336 kts 86°
2026-04-24 03:27 39.00970 -76.52468 12517 ft 337 kts 86°
2026-04-24 03:27 39.00977 -76.49430 12785 ft 338 kts 86°
2026-04-24 03:28 39.00981 -76.46406 13040 ft 338 kts 85°
2026-04-24 03:28 39.00986 -76.43427 13278 ft 339 kts 85°
2026-04-24 03:28 39.01084 -76.40421 13480 ft 337 kts 78°
2026-04-24 03:28 39.01381 -76.37431 13671 ft 339 kts 78°
2026-04-24 03:29 39.01683 -76.34403 13851 ft 340 kts 79°
2026-04-24 03:29 39.01983 -76.31368 14048 ft 342 kts 78°
2026-04-24 03:29 39.02279 -76.28359 14226 ft 344 kts 78°
2026-04-24 03:29 39.02579 -76.25303 14400 ft 345 kts 79°
2026-04-24 03:30 39.02879 -76.22227 14584 ft 346 kts 78°
2026-04-24 03:30 39.03179 -76.19157 14750 ft 347 kts 79°
2026-04-24 03:30 39.03476 -76.16101 14902 ft 349 kts 79°
2026-04-24 03:30 39.03779 -76.12985 15063 ft 350 kts 78°
2026-04-24 03:31 39.04077 -76.09895 15232 ft 351 kts 78°
2026-04-24 03:31 39.04368 -76.06786 15372 ft 354 kts 81°
2026-04-24 03:31 39.04518 -76.03623 15496 ft 357 kts 82°
2026-04-24 03:31 39.04662 -76.00435 15627 ft 358 kts 82°
2026-04-24 03:32 39.04808 -75.97199 15769 ft 360 kts 82°
2026-04-24 03:32 39.04952 -75.94019 15906 ft 361 kts 82°
2026-04-24 03:32 39.05098 -75.90780 16045 ft 362 kts 82°
2026-04-24 03:32 39.05242 -75.87563 16180 ft 363 kts 82°
2026-04-24 03:33 39.05388 -75.84309 16313 ft 365 kts 82°
2026-04-24 03:33 39.05533 -75.81029 16437 ft 366 kts 82°
2026-04-24 03:33 39.05677 -75.77759 16560 ft 367 kts 81°
2026-04-24 03:33 39.06268 -75.74680 16631 ft 356 kts 57°
2026-04-24 03:34 39.07724 -75.72192 16744 ft 346 kts 41°
2026-04-24 03:34 39.09376 -75.69944 16885 ft 345 kts 40°
2026-04-24 03:34 39.11040 -75.67719 17002 ft 346 kts 39°
2026-04-24 03:34 39.12733 -75.65468 17131 ft 347 kts 39°
2026-04-24 03:35 39.14401 -75.63254 17191 ft 350 kts 39°
2026-04-24 03:35 39.16111 -75.60983 17251 ft 353 kts 39°
2026-04-24 03:35 39.17805 -75.58734 17400 ft 352 kts 39°
2026-04-24 03:35 39.19525 -75.56448 17581 ft 351 kts 39°
2026-04-24 03:36 39.21207 -75.54211 17691 ft 352 kts 39°
2026-04-24 03:36 39.22929 -75.51946 17781 ft 351 kts 35°
2026-04-24 03:36 39.24858 -75.50101 17891 ft 345 kts 27°
2026-04-24 03:36 39.26848 -75.48341 18032 ft 346 kts 27°
2026-04-24 03:37 39.28827 -75.46589 18139 ft 347 kts 27°
2026-04-24 03:37 39.30817 -75.44824 18240 ft 348 kts 27°
2026-04-24 03:37 39.32789 -75.43072 18314 ft 338 kts 27°
2026-04-24 03:37 39.34708 -75.41367 18291 ft 334 kts 27°
2026-04-24 03:38 39.36682 -75.39619 18305 ft 347 kts 27°
2026-04-24 03:38 39.38681 -75.37839 18304 ft 349 kts 27°
2026-04-24 03:38 39.40682 -75.36058 18296 ft 348 kts 27°
2026-04-24 03:38 39.42663 -75.34293 18282 ft 348 kts 27°
2026-04-24 03:39 39.44682 -75.32494 18259 ft 348 kts 27°
2026-04-24 03:39 39.46665 -75.30725 18238 ft 348 kts 27°
2026-04-24 03:39 39.48661 -75.28943 18216 ft 347 kts 27°
2026-04-24 03:39 39.50671 -75.27143 18208 ft 347 kts 28°
2026-04-24 03:40 39.52636 -75.25310 18202 ft 349 kts 28°
2026-04-24 03:40 39.54579 -75.23492 18213 ft 348 kts 28°
2026-04-24 03:40 39.56564 -75.21633 18202 ft 347 kts 28°
2026-04-24 03:40 39.58549 -75.19778 18420 ft 366 kts 28°
2026-04-24 03:41 39.60620 -75.17834 19322 ft 368 kts 28°
2026-04-24 03:41 39.62738 -75.15851 19645 ft 388 kts 28°
2026-04-24 03:41 39.64987 -75.13741 19653 ft 414 kts 28°
2026-04-24 03:41 39.67391 -75.11482 19673 ft 437 kts 29°
2026-04-24 03:42 39.69924 -75.09270 19673 ft 424 kts 27°
2026-04-24 03:42 39.72245 -75.07270 19627 ft 387 kts 26°
2026-04-24 03:42 39.74427 -75.05392 19340 ft 367 kts 25°
2026-04-24 03:42 39.76537 -75.03584 18140 ft 370 kts 26°
2026-04-24 03:43 39.78677 -75.01741 17027 ft 368 kts 26°
2026-04-24 03:43 39.80785 -74.99924 16071 ft 361 kts 26°
2026-04-24 03:43 39.82789 -74.98189 15613 ft 341 kts 26°
2026-04-24 03:43 39.84714 -74.96523 15295 ft 320 kts 26°
2026-04-24 03:44 39.86537 -74.94885 14917 ft 316 kts 27°
2026-04-24 03:44 39.88318 -74.93276 14579 ft 316 kts 27°
2026-04-24 03:44 39.90116 -74.91647 14226 ft 315 kts 27°
2026-04-24 03:44 39.91908 -74.90006 13877 ft 314 kts 30°
2026-04-24 03:45 39.93473 -74.87968 13574 ft 319 kts 39°
2026-04-24 03:45 39.94965 -74.85834 13225 ft 319 kts 39°
2026-04-24 03:45 39.96464 -74.83691 12871 ft 319 kts 39°
2026-04-24 03:45 39.97944 -74.81576 12521 ft 319 kts 40°
2026-04-24 03:46 39.99446 -74.79425 12170 ft 318 kts 39°
2026-04-24 03:46 40.00939 -74.77287 11810 ft 317 kts 40°
2026-04-24 03:46 40.02422 -74.75160 11487 ft 312 kts 40°
2026-04-24 03:46 40.03851 -74.73111 11248 ft 306 kts 39°
2026-04-24 03:47 40.05289 -74.71048 10939 ft 305 kts 39°
2026-04-24 03:47 40.06693 -74.69031 10636 ft 301 kts 39°
2026-04-24 03:47 40.08091 -74.67021 10288 ft 297 kts 39°
2026-04-24 03:47 40.09475 -74.65031 10015 ft 290 kts 39°
2026-04-24 03:48 40.10811 -74.63109 10023 ft 288 kts 39°
2026-04-24 03:48 40.12173 -74.61151 10019 ft 290 kts 39°
2026-04-24 03:48 40.13535 -74.59188 10018 ft 291 kts 39°
2026-04-24 03:48 40.14901 -74.57220 10041 ft 293 kts 39°
2026-04-24 03:49 40.16251 -74.55273 10021 ft 292 kts 39°
2026-04-24 03:49 40.17632 -74.53280 10013 ft 292 kts 39°
2026-04-24 03:49 40.18982 -74.51329 10002 ft 291 kts 39°
2026-04-24 03:49 40.20358 -74.49367 9998 ft 290 kts 36°
2026-04-24 03:50 40.21806 -74.47536 10002 ft 288 kts 35°
2026-04-24 03:50 40.23254 -74.45712 10004 ft 289 kts 35°
2026-04-24 03:50 40.24714 -74.43871 10007 ft 289 kts 34°
2026-04-24 03:50 40.26172 -74.42030 10004 ft 291 kts 35°
2026-04-24 03:51 40.27607 -74.40217 10004 ft 290 kts 35°
2026-04-24 03:51 40.29055 -74.38387 10000 ft 291 kts 35°
2026-04-24 03:51 40.30501 -74.36557 10002 ft 289 kts 35°
2026-04-24 03:51 40.31974 -74.34693 9997 ft 291 kts 36°
2026-04-24 03:52 40.33428 -74.32851 9993 ft 290 kts 35°
2026-04-24 03:52 40.34868 -74.31027 9991 ft 289 kts 35°
2026-04-24 03:52 40.36333 -74.29171 9978 ft 290 kts 35°
2026-04-24 03:52 40.37784 -74.27330 9989 ft 292 kts 36°
2026-04-24 03:53 40.39242 -74.25479 9997 ft 293 kts 36°
2026-04-24 03:53 40.40715 -74.23607 9993 ft 292 kts 36°
2026-04-24 03:53 40.42181 -74.21744 9978 ft 294 kts 35°
2026-04-24 03:53 40.43632 -74.19898 9941 ft 291 kts 36°
2026-04-24 03:54 40.45093 -74.18037 9971 ft 290 kts 35°
2026-04-24 03:54 40.46544 -74.16190 9999 ft 293 kts 35°
2026-04-24 03:54 40.48021 -74.14308 9993 ft 294 kts 35°
2026-04-24 03:54 40.49462 -74.12469 9988 ft 291 kts 35°
2026-04-24 03:55 40.50917 -74.10613 9999 ft 292 kts 34°
2026-04-24 03:55 40.52464 -74.08900 10001 ft 283 kts 24°
2026-04-24 03:55 40.54102 -74.07511 9910 ft 285 kts 23°
2026-04-24 03:55 40.55785 -74.06087 9626 ft 286 kts 23°
2026-04-24 03:56 40.57430 -74.04693 9326 ft 283 kts 24°
2026-04-24 03:56 40.59029 -74.03155 9007 ft 292 kts 40°
2026-04-24 03:56 40.59964 -74.00738 8691 ft 312 kts 69°
2026-04-24 03:56 40.60710 -73.98058 7947 ft 303 kts 46°
2026-04-24 03:57 40.62206 -73.96495 7971 ft 255 kts 12°
2026-04-24 03:57 40.63849 -73.96149 7556 ft 243 kts 356°
2026-04-24 03:57 40.65566 -73.96002 6803 ft 255 kts
2026-04-24 03:57 40.67331 -73.95385 6019 ft 272 kts 15°
2026-04-24 03:58 40.69075 -73.94344 5179 ft 281 kts 23°
2026-04-24 03:58 40.70610 -73.92747 4386 ft 279 kts 41°
2026-04-24 03:58 40.71785 -73.90831 3594 ft 269 kts 60°
2026-04-24 03:58 40.72275 -73.88628 3112 ft 228 kts 72°
2026-04-24 03:59 40.72601 -73.86803 3065 ft 187 kts 72°
2026-04-24 03:59 40.72874 -73.85259 3039 ft 165 kts 70°
2026-04-24 03:59 40.73448 -73.84132 3119 ft 143 kts 32°
2026-04-24 03:59 40.74303 -73.83461 3079 ft 141 kts 15°
2026-04-24 04:00 40.75258 -73.83569 3000 ft 143 kts 335°
2026-04-24 04:00 40.76189 -73.83890 2813 ft 141 kts
2026-04-24 04:00 40.77144 -73.83440 2340 ft 148 kts 20°
2026-04-24 04:00 40.78059 -73.82980 2005 ft 135 kts 27°
2026-04-24 04:01 40.78596 -73.82040 1891 ft 134 kts 73°
2026-04-24 04:01 40.78404 -73.80823 1774 ft 144 kts 121°
2026-04-24 04:01 40.77560 -73.80184 1502 ft 144 kts 172°
2026-04-24 04:01 40.76625 -73.80537 1263 ft 139 kts 221°
2026-04-24 04:02 40.76160 -73.81570 1220 ft 130 kts 259°
2026-04-24 04:02 40.76022 -73.82749 934 ft 132 kts 283°
2026-04-24 04:02 40.76304 -73.83860 580 ft 126 kts 302°
2026-04-24 04:02 40.76754 -73.84814 289 ft 120 kts 308°
2026-04-24 04:03 40.77209 -73.85733 59 ft 118 kts 307°
2026-04-24 04:03 40.77628 -73.86599 9 ft 92 kts 303°
2026-04-24 04:03 40.77861 -73.87086 10 ft 28 kts 301°
2026-04-24 04:03 40.77914 -73.87240 12 ft 14 kts 264°
2026-04-24 04:04 40.77905 -73.87283 12 ft 0 kts 249°
2026-04-24 04:04 40.77904 -73.87288 12 ft 0 kts 249°
2026-04-24 04:05 40.77903 -73.87291 12 ft 0 kts 249°
2026-04-24 04:05 40.77894 -73.87321 12 ft 6 kts 249°
2026-04-24 04:05 40.77855 -73.87385 12 ft 11 kts 214°
2026-04-24 04:05 40.77775 -73.87396 12 ft 8 kts 204°
2026-04-24 04:06 40.77718 -73.87447 12 ft 12 kts 169°
2026-04-24 04:06 40.77636 -73.87435 12 ft 8 kts 163°
2026-04-24 04:06 40.77616 -73.87419 12 ft 1 kts 137°
2026-04-24 04:06 40.77610 -73.87412 12 ft 0 kts 135°